Weather History for Monticello, KY

Change the Weather History Date:

Monday, November 19, 2012

  Actual Average Record
Temperature  
Mean Temperature 44 °F -  
Max Temperature 63 °F 59 °F 77 °F (1985)
Min Temperature 25 °F 36 °F 12 °F (2014)
Degree Days  
Heating Degree Days 21    
Moisture  
Dew Point 32 °F    
Average Humidity 75    
Maximum Humidity 96    
Minimum Humidity 31    
Precipitation  
Precipitation 0.00 in - - ()
Sea Level Pressure  
Sea Level Pressure 30.33 in    
Wind  
Wind Speed 0 mph (South)    
Max Wind Speed 5 mph    
Max Gust Speed -    
Visibility 10 miles    
Events      
Averages and records for this station are not official NWS values.
T = Trace of Precipitation, MM = Missing Value Source: NWS Daily Summary

Daily Weather History Graph

Daily Weather History Graph

Search for Another Location

Airport:

Trip Planner

Search our weather history database for the weather conditions in past years. The results will help you decide how hot, cold, wet, or windy it might be!

Date:

Astronomy

Nov. 19, 2012 Rise Set
Actual Time 6:22 AM CST 4:27 PM CST
Civil Twilight 5:54 AM CST 4:55 PM CST
Nautical Twilight 5:22 AM CST 5:26 PM CST
Astronomical Twilight 4:52 AM CST 5:57 PM CST
Moon 11:27 AM CST (11/19) 10:49 PM CST (11/19)
Length of Visible Light 11h 00m
Length of Day
10h 04m
Waxing Crescent, 41% of the Moon is Illuminated
Nov 19
Waxing Crescent
Nov 20
First Quarter
Nov 28
Full
Dec 6
Last Quarter
Dec 13
New

Hourly Weather History & Observations

Time (CST) Temp. Dew Point Humidity Pressure Visibility Wind Dir Wind Speed Gust Speed Precip Events Conditions
12:56 AM 27.1 °F 26.1 °F 96% 30.39 in 10.0 mi Calm Calm - N/A   Clear
1:56 AM 25.2 °F 24.1 °F 96% 30.39 in 10.0 mi Calm Calm - N/A   Clear
2:56 AM 25.2 °F 24.1 °F 96% 30.38 in 10.0 mi Calm Calm - N/A   Clear
3:56 AM 26.1 °F 25.2 °F 96% 30.38 in 10.0 mi Calm Calm - N/A   Clear
4:56 AM 25.2 °F 24.1 °F 96% 30.40 in 10.0 mi Calm Calm - N/A   Clear
5:56 AM 25.2 °F 23.0 °F 91% 30.40 in 10.0 mi Calm Calm - N/A   Clear
6:56 AM 27.1 °F 26.1 °F 96% 30.40 in 10.0 mi Calm Calm - N/A   Clear
7:56 AM 36.0 °F 32.9 °F 89% 30.40 in 10.0 mi Calm Calm - N/A   Clear
8:56 AM 45.0 °F 36.0 °F 71% 30.40 in 10.0 mi Calm Calm - N/A   Clear
9:56 AM 52.0 °F 36.9 °F 56% 30.39 in 10.0 mi Calm Calm - N/A   Clear
10:56 AM 56.8 °F 36.0 °F 46% 30.37 in 10.0 mi Calm Calm - N/A   Clear
11:56 AM 59.9 °F 36.0 °F 41% 30.34 in 10.0 mi Calm Calm - N/A   Clear
12:56 PM 61.9 °F 36.9 °F 39% 30.31 in 10.0 mi Variable 4.6 mph - N/A   Clear
1:56 PM 63.9 °F 32.9 °F 31% 30.29 in 10.0 mi North 4.6 mph - N/A   Clear
2:56 PM 61.0 °F 31.1 °F 32% 30.29 in 10.0 mi Calm Calm - N/A   Clear
3:56 PM 52.9 °F 34.0 °F 49% 30.28 in 10.0 mi Calm Calm - N/A   Clear
4:56 PM 45.9 °F 34.9 °F 66% 30.28 in 10.0 mi Calm Calm - N/A   Clear
5:56 PM 38.8 °F 34.0 °F 83% 30.28 in 10.0 mi Calm Calm - N/A   Clear
6:56 PM 36.0 °F 32.9 °F 89% 30.28 in 10.0 mi Calm Calm - N/A   Clear
7:56 PM 32.9 °F 31.1 °F 93% 30.29 in 10.0 mi Calm Calm - N/A   Clear
8:56 PM 34.9 °F 32.9 °F 92% 30.27 in 10.0 mi Calm Calm - N/A   Clear
9:56 PM 37.9 °F 36.0 °F 93% 30.25 in 10.0 mi Calm Calm - N/A   Clear
10:56 PM 41.9 °F 36.0 °F 79% 30.24 in 10.0 mi Calm Calm - N/A   Clear
11:56 PM 39.9 °F 36.0 °F 86% 30.23 in 10.0 mi Calm Calm - N/A   Clear